Location: Chakepay
(13.3931°S, 72.1925°W)
Time: 11:43:53
(UTC+00:00)

GPS 2-12 Rocket1 - Pass Details

Date: 15 November 2019
Orbit: 586 x 652 km, 20.0° (Epoch: 07 December)

Event Time Altitude Azimuth Distance (km) Brightness Sun altitude
Rises 00:49:17 0° 260° (W) 2,949 7.7 -26.3°
Reaches altitude 10° 00:51:43 10° 264° (W) 2,043 6.5 -26.8°
Enters shadow 00:55:24 44° 299° (WNW) 892 4.0 -27.6°
